Starlink 31298

operational
NORAD ID: 59167 Int'l Des: 2024-044 Owner: SPXS Country: US Constellation: starlink
LEOCIRCULAR

Über Starlink 31298

Beschreibung wird geladen...

Live-Position

3D-Globus wird geladen...

Nächste Überflüge

Höhenverlauf

Altitude vs Time

uPlot chart will show altitude changes over time

Zweizeiliger Elementsatz

1 59167U 24044R 25349.65415205 -.00000524 00000-0 -95260-5 0 9993
2 59167 42.9999 221.5989 0001345 261.0648 99.0052 15.27572838100710
Epoch: 15. Dez. 2025 • Age: 17 hours

Aktueller Status

Höhe 491.3 km
Geschwindigkeit 7.62 km/s
Subsatellitenpunkt -32.58°S, 130.65°W
Startdatum 4. März 2024
Alter 1.7 years
Typ internet

Technische Details

Klassifizierung Payload
Masse 730.00 kg
Trockenmasse 700.00 kg
Gesamtmasse 730.00 kg
Länge 0.30 m
Durchmesser 4.10 m
Spannweite 29.00 m
Form Box + pan
Hersteller SPXS
Bus-Typ Starlink V2M
Phasenstatus In Orbit
Besitzer/Staat SPXS/US

Große Konstellationen

Loading constellations...